Flag for Germany Weather past 2 weeks in Bayreuth, Bavaria, Germany

Now
70 °F

Passing clouds.


Feels Like: 70 °F
Forecast: 52 / 60 °F
Wind: 9 mph from West

Location: Grafenwoehr

Current Time: Aug 30, 2014 at 2:45:48 PM

Latest Report: Aug 30, 2014 at 1:58 PM


Visibility: N/A

Pressure: 30.07 "Hg

Humidity: 53%

Dew point: 52 °F

Location of BayreuthLocation

Historic Weather in Bayreuth — Graph

°F

Bayreuth temperature yesterday

Maximum temperature yesterday: 72 °F (at 5:58 PM)
Minimum temperature yesterday: 50 °F (at 6:58 AM)
Average temperature yesterday: 62 °F

Past Weeks' High & Low Weather Summary

 TemperatureHumidityPressure
High72 °F (Aug 29, 5:58 PM)100% (Aug 29, 6:58 AM)30.14 "Hg (Aug 29, 6:58 AM)
Low36 °F (Aug 25, 5:04 AM)40% (Aug 20, 1:58 PM)29.68 "Hg (Aug 26, 8:58 AM)
Average55 °F77%29.98 "Hg
* Reported Aug 15 1:58 PM — Aug 30 1:58 PM, Bayreuth, Weather by CustomWeather, © 2014

Note: Actual official high and low records may vary slightly from our data, if they occured in-between our weather recording intervals... More about our weather records

Advertising

Bayreuth weather history for previous 24 hours

 ConditionsComfort  
Time TempWeatherWind HumidityBarometerVisibility
1:58 PM
Aug 30
70 °FPassing clouds.9 mph53%30.07 "HgN/A
12:58 PM70 °FBroken clouds.8 mph57%30.07 "HgN/A
11:58 AM68 °FPassing clouds.7 mph60%30.09 "HgN/A
11:00 AM66 °FBroken clouds.5 mph73%30.10 "HgN/A
9:58 AM61 °FPartly sunny.5 mph100%30.09 "HgN/A
8:59 AM57 °FPassing clouds.No wind100%30.09 "HgN/A
7:58 AM52 °FPassing clouds.No wind100%30.08 "HgN/A
6:58 AM52 °FCool.No wind100%30.06 "HgN/A
5:58 AM52 °FFog.No wind100%30.05 "Hg0 mi
4:58 AM54 °FPassing clouds.No wind100%30.04 "HgN/A
3:58 AM54 °FOvercast.No wind100%30.05 "HgN/A
3:03 AM54 °FPassing clouds.No wind100%30.06 "HgN/A
1:58 AM54 °FPassing clouds.No wind100%30.06 "HgN/A
12:58 AM54 °FPartly cloudy.No wind100%30.06 "HgN/A
11:58 PM
Aug 29
54 °FClear.No wind100%30.05 "HgN/A
10:58 PM55 °FClear.No wind100%30.03 "HgN/A
8:58 PM59 °FSunny.No wind94%30.02 "HgN/A
7:58 PM63 °FPassing clouds.2 mph83%30.01 "HgN/A
6:58 PM68 °FPassing clouds.2 mph64%30.01 "HgN/A
5:58 PM72 °FPartly sunny.6 mph57%30.00 "HgN/A
4:58 PM70 °FScattered clouds.5 mph64%30.01 "HgN/A
4:04 PM68 °FBroken clouds.7 mph69%30.03 "HgN/A
3:58 PM69 °FPartly sunny.8 mph68%30.01 "HgN/A
3:04 PM68 °FPartly sunny.6 mph69%30.04 "HgN/A
2:58 PM68 °FBroken clouds.8 mph69%30.03 "HgN/A
Weather by CustomWeather, © 2014

See weather overviewHow to use our weather pages